Temperature
11 11 12 12 10 8 9 10 10 12 12 14 15 15 15 16 17 17 17 18 18 18 18 17 17 17 17 17 17 17 17 17 17 17 17 17 17 17 17 17 17 16 16 16 16 16 16 16 16
11 11 12 11 9 9 9 9 10 12 13 14 15 15 15 16 17 17 17 17 17 17 17 17 17 17 17 17 17 17 17 17 17 17 17 17 17 17 17 17 16 16 16 16 16 16 16 16 16
10 11 11 8 8 9 10 10 10 11 13 13 14 14 15 15 16 16 16 16 17 17 17 17 17 16 16 16 16 17 16 16 17 17 17 17 16 16 16 16 16 16 16 16 16 16 16 16 16
10 11 10 8 9 8 9 10 10 11 12 13 13 13 14 14 15 15 16 16 16 16 16 16 16 16 16 16 16 16 16 16 16 16 16 16 16 16 16 16 16 16 16 16 16 16 16 16 16
10 10 7 7 7 8 8 9 10 10 11 12 12 12 13 14 14 15 15 15 16 16 16 16 16 16 16 16 16 16 16 16 16 16 16 16 16 16 16 16 16 16 16 16 16 16 16 16 16
9 7 6 7 7 7 8 10 10 10 10 11 12 11 13 14 14 15 15 15 15 15 15 15 15 15 15 15 16 16 16 16 16 16 16 16 16 16 16 16 16 16 16 16 16 16 16 16 16
8 5 6 6 6 7 9 10 10 9 9 11 11 11 13 13 14 14 14 14 15 15 15 15 15 15 15 15 15 16 16 16 16 16 16 16 16 16 16 16 16 16 16 16 16 16 16 16 16
8 5 6 5 6 7 9 10 10 10 10 11 11 10 12 13 13 13 14 14 14 14 14 14 15 15 15 15 15 15 15 16 16 16 16 15 15 16 16 16 16 16 16 16 16 16 16 16 16
8 5 5 5 6 7 8 9 9 10 10 10 11 11 12 12 12 12 13 13 13 14 14 14 14 14 15 15 15 15 15 15 15 15 15 15 15 15 15 15 15 15 15 15 15 15 15 15 15
7 5 6 6 7 7 8 8 9 9 8 9 10 11 11 11 11 11 12 12 13 13 14 14 14 14 14 14 15 15 15 15 15 15 15 15 15 15 15 15 15 15 15 15 15 15 15 15 15
6 5 6 7 8 8 8 8 8 8 7 9 9 10 11 11 11 11 11 12 12 13 13 13 14 14 14 14 14 14 14 15 15 15 15 15 15 15 15 15 15 15 15 15 15 15 15 15 15
6 6 6 7 8 8 7 7 7 8 8 10 10 10 10 10 10 11 11 11 12 12 12 13 13 13 13 14 14 14 14 14 15 15 15 15 15 15 15 15 15 15 15 15 15 15 15 15 15
5 6 7 7 7 7 7 7 7 8 9 9 9 9 9 10 10 10 11 11 11 12 12 13 13 13 13 13 13 13 14 14 14 14 14 14 14 14 14 15 14 14 14 15 15 15 15 15 15
6 6 6 7 7 7 7 7 7 8 9 9 9 9 9 9 10 10 10 11 11 11 12 12 12 13 13 13 13 13 13 14 14 14 14 14 14 14 14 14 14 14 14 14 14 15 15 15 15
6 6 6 6 7 7 7 6 7 8 9 8 9 9 9 9 9 10 10 10 11 11 11 12 12 12 12 12 13 13 13 13 14 14 14 14 14 14 14 14 14 14 14 14 14 14 14 14 14
6 5 5 6 6 7 6 6 7 9 8 8 8 8 8 9 9 9 10 10 10 11 11 11 12 12 12 12 12 12 12 13 13 14 14 14 14 14 14 14 14 14 14 14 14 14 14 14 14
5 4 5 6 6 6 6 6 7 8 7 7 7 7 7 8 8 9 9 10 10 11 11 11 11 11 11 12 12 12 12 12 13 13 13 13 13 14 13 14 14 14 14 14 14 14 14 14 14
5 5 5 5 6 6 6 6 7 7 7 7 7 7 7 7 8 8 9 9 10 10 10 11 11 11 11 11 12 12 12 12 12 13 13 13 13 13 13 13 13 13 13 13 13 13 13 14 14
5 5 5 5 6 6 5 6 6 7 7 6 6 6 6 7 7 8 8 9 9 10 10 10 10 11 11 11 11 11 12 12 12 12 13 13 13 13 13 13 13 13 13 13 13 13 13 13 13
5 5 5 5 6 6 5 5 6 6 6 6 6 6 6 6 7 7 8 8 9 9 9 10 10 10 11 11 11 11 12 12 12 12 12 12 12 12 12 12 12 12 12 12 13 13 12 12 12
5 5 5 5 6 6 5 5 6 6 6 7 6 6 6 6 6 7 7 8 8 8 9 9 9 10 10 11 11 11 11 11 11 11 11 11 12 12 12 12 12 12 12 12 12 12 12 12 12
6 6 6 6 5 5 5 5 5 6 6 6 5 5 6 6 6 6 7 7 8 8 8 9 9 9 10 10 10 10 10 11 11 11 11 11 11 11 12 12 12 12 12 12 12 12 12 12 12
6 6 6 6 5 5 5 5 5 5 6 6 5 5 5 5 5 6 6 7 7 8 8 8 9 9 10 10 10 10 10 10 10 10 10 11 11 11 11 11 11 12 12 12 12 11 11 11 11
6 6 5 5 4 5 5 5 5 5 5 5 5 5 5 5 5 5 6 6 7 7 8 8 8 9 9 9 9 9 9 10 10 10 10 10 10 10 11 11 11 11 11 11 11 11 11 11 11
6 5 4 4 4 5 5 5 5 5 5 5 4 4 4 4 4 5 5 6 6 7 7 7 8 8 8 9 9 9 9 9 9 10 10 10 10 10 10 10 10 11 11 11 11 11 11 11 11
5 5 5 5 5 5 5 5 5 5 5 5 4 4 4 4 4 4 5 5 5 6 6 7 7 7 7 8 8 9 9 9 9 9 9 9 9 10 10 10 10 10 10 10 10 10 10 10 10
6 5 5 4 4 4 5 5 5 5 5 5 4 4 4 4 4 4 4 5 5 5 6 6 6 6 7 7 7 8 8 8 9 9 9 9 9 9 9 9 9 10 10 10 10 10 10 9 9
6 5 4 4 5 5 5 5 5 5 5 4 4 3 3 3 3 3 4 4 4 5 5 5 6 6 6 6 7 7 8 8 8 8 8 8 9 9 9 9 9 9 9 9 9 9 9 9 9
5 5 4 4 4 5 5 6 6 5 4 4 3 3 3 3 3 3 4 4 4 4 4 5 5 5 6 6 6 7 7 8 8 8 8 8 8 8 8 8 9 9 9 9 9 8 8 8 8
5 5 4 5 4 3 4 5 5 4 4 4 3 3 3 3 3 3 3 4 4 4 4 4 5 5 5 5 6 6 7 7 7 8 8 8 8 8 8 8 8 8 8 8 8 8 8 8 8
Wind_Speed
6 5 3 4 4 2 6 6 4 3 3 3 3 4 5 5 4 3 4 3 3 1 6 12 15 16 18 19 18 18 18 18 19 20 21 21 21 21 20 19 18 17 17 17 18 18 18 18 18
3 3 4 4 4 4 7 6 6 4 3 5 4 2 2 4 2 3 5 7 4 1 5 8 13 15 16 18 19 18 19 19 19 19 20 20 20 20 20 19 18 18 17 17 18 18 18 18 17
3 5 4 4 4 7 5 3 5 4 5 3 4 2 2 4 4 3 5 6 3 2 3 6 11 14 15 16 18 19 19 19 19 19 19 19 20 20 20 19 19 18 18 18 18 18 17 17 17
4 4 4 2 8 6 4 2 1 4 4 3 2 5 4 3 2 3 6 4 4 3 2 3 9 11 14 15 17 19 19 19 19 19 18 19 19 19 19 19 18 18 18 18 18 17 17 16 16
4 4 3 3 7 5 4 4 2 2 3 3 3 5 6 2 3 4 5 5 3 3 3 0 6 10 12 14 16 17 19 19 19 19 18 19 19 19 19 19 18 18 18 18 18 17 16 15 15
4 4 3 6 7 5 5 4 2 2 3 4 3 4 6 1 3 5 5 5 3 1 2 1 3 7 10 12 14 16 17 18 19 19 19 19 19 19 19 19 19 19 19 18 18 17 16 15 15
5 4 4 4 4 5 4 3 3 4 5 5 3 4 5 4 3 5 5 4 4 2 1 1 2 5 8 10 12 15 15 16 18 19 19 18 19 19 20 19 19 19 19 18 18 17 16 15 14
4 4 2 3 4 6 3 2 2 4 6 4 3 5 6 5 4 6 6 5 4 3 2 2 1 2 4 7 11 14 15 15 16 17 18 18 18 18 19 19 19 19 18 18 17 16 15 14 13
4 2 4 5 6 5 2 2 4 4 5 5 5 7 9 7 6 6 4 5 4 5 3 3 2 2 3 5 7 11 13 14 15 15 16 16 15 15 16 17 19 19 18 18 17 16 15 13 12
4 4 7 5 4 4 4 4 5 5 7 7 8 8 9 7 6 6 6 6 6 6 5 4 4 3 3 4 4 6 9 10 11 12 13 13 13 13 14 16 18 18 18 17 16 15 14 11 10
4 5 4 5 6 5 6 7 5 7 11 11 11 11 9 9 8 8 9 8 8 6 7 6 5 4 4 3 3 3 5 7 8 10 12 12 11 11 12 11 13 15 16 14 14 12 10 9 9
3 5 6 5 5 5 7 6 7 11 15 12 12 12 11 12 11 10 10 9 8 7 8 7 6 5 5 4 4 3 4 5 5 8 12 10 7 7 8 7 10 11 11 10 10 8 9 9 9
5 5 6 8 9 9 10 12 11 15 17 14 13 12 13 13 11 10 10 10 9 9 9 8 7 7 6 5 4 4 4 5 6 7 11 11 7 8 7 7 8 9 10 9 8 7 7 6 7
4 5 8 8 9 6 9 13 9 14 12 11 11 12 13 12 11 10 9 10 9 9 8 8 8 8 7 6 5 5 4 5 6 7 9 12 9 8 8 7 7 8 10 10 9 8 6 5 5
2 5 8 6 5 4 4 10 9 11 8 10 11 11 12 11 9 10 9 9 9 8 8 7 8 8 8 7 7 5 4 5 5 6 9 11 11 9 8 8 7 8 10 10 8 6 5 4 4
2 2 5 4 3 3 2 11 9 6 6 10 11 10 10 9 8 9 8 7 8 7 7 7 7 7 8 8 6 5 4 4 5 6 7 9 11 11 8 8 8 9 9 8 7 6 5 5 5
1 3 5 7 3 2 3 10 11 8 7 10 10 8 9 9 9 8 7 6 6 7 6 7 6 6 7 7 6 5 5 4 5 6 6 8 9 11 9 8 7 10 8 7 8 6 6 6 5
3 4 5 6 5 3 7 12 15 10 7 9 9 8 8 8 9 7 6 5 6 6 5 5 5 6 7 6 5 4 4 4 4 5 5 7 8 9 9 7 8 9 7 7 7 7 6 6 6
4 5 9 9 7 6 9 13 14 10 7 8 8 8 8 8 7 5 5 4 4 4 4 4 5 5 5 4 5 5 5 5 5 5 6 7 7 8 8 7 8 9 9 9 9 6 7 5 4
5 7 9 9 5 5 7 12 10 7 5 6 8 8 8 8 7 6 5 3 2 3 4 4 5 5 5 5 5 4 5 5 5 5 5 6 7 8 7 8 9 9 8 9 9 7 6 4 5
6 6 6 7 7 3 5 8 5 5 5 7 9 8 8 8 8 7 6 4 2 2 3 4 5 5 6 6 4 4 4 3 3 4 5 6 7 8 8 8 8 9 9 9 10 10 9 7 5
5 5 6 6 5 4 3 5 7 7 9 10 11 11 10 9 9 7 6 4 3 2 2 2 4 4 5 5 6 7 6 6 5 5 5 5 6 7 8 9 9 9 9 9 9 9 8 9 8
5 3 4 4 3 4 2 2 7 6 9 12 12 12 12 11 9 8 7 5 4 3 1 1 2 3 3 5 6 6 6 5 4 4 5 5 5 6 7 8 9 9 8 9 9 9 8 7 7
2 2 2 1 1 2 2 1 5 5 8 11 11 12 12 11 10 9 7 6 5 4 2 1 1 1 2 4 5 6 6 5 5 5 5 4 4 4 6 7 7 7 7 9 9 9 10 9 8
2 3 4 5 3 3 2 1 5 4 6 7 9 11 11 11 10 10 8 7 7 6 5 4 4 2 2 2 3 4 5 5 6 5 5 4 4 4 5 6 7 7 7 7 8 8 8 8 9
1 2 2 1 3 4 3 3 5 3 5 6 7 7 9 10 10 10 9 7 7 7 7 7 6 4 3 3 2 1 2 3 3 3 3 3 3 3 4 5 6 6 6 6 6 6 7 6 7
0 1 2 2 1 3 4 5 4 2 6 7 8 9 10 10 10 10 10 9 8 7 7 7 7 7 6 5 4 4 3 2 2 2 2 2 1 1 3 3 4 4 4 6 6 5 6 6 6
1 2 2 1 1 3 5 4 4 5 6 7 7 8 9 9 9 9 9 9 8 8 8 8 9 8 7 6 5 4 4 3 2 2 2 1 1 1 2 2 3 4 4 5 5 4 5 6 6
1 1 1 1 2 1 3 5 2 2 2 3 5 6 7 8 9 9 9 9 10 10 10 10 9 9 9 8 7 6 6 4 4 3 2 1 1 1 0 1 2 3 4 4 4 4 4 6 6
1 2 2 1 1 2 2 5 2 0 1 2 3 5 6 7 8 8 9 10 10 11 11 11 10 10 9 9 9 8 7 6 6 4 3 2 2 2 1 1 0 1 2 4 5 4 5 6 7
Wind_Direction
6 13 53 58 66 74 235 235 220 224 223 250 259 231 217 212 194 218 316 345 343 154 170 173 167 166 169 167 164 161 157 155 153 152 152 151 151 149 149 148 145 141 138 135 132 128 125 123 121
19 33 55 69 124 208 249 230 224 221 265 309 307 284 263 267 300 322 341 334 343 122 158 169 168 168 170 170 167 165 163 161 158 157 156 155 154 153 152 151 148 144 141 138 135 131 128 125 123
54 48 86 103 175 204 226 213 219 278 304 336 326 319 269 276 316 327 323 319 355 50 139 170 169 172 172 172 172 171 168 165 164 162 161 160 158 156 155 154 149 146 143 141 138 135 132 130 128
70 51 61 133 224 228 229 223 266 321 330 346 345 309 295 287 314 313 319 347 24 16 31 167 169 172 176 174 174 176 174 171 169 168 166 164 161 159 157 154 150 148 146 144 141 139 136 134 134
59 82 107 230 243 250 252 261 268 303 309 327 341 299 283 296 326 335 345 7 21 6 1 113 175 177 179 177 175 177 180 177 175 173 171 168 166 162 158 154 152 152 151 148 146 144 142 140 139
65 79 143 231 248 266 265 255 262 271 278 293 290 281 266 274 2 350 356 3 359 338 342 340 188 188 184 184 181 177 181 183 180 178 176 172 169 165 161 157 157 157 156 154 151 150 148 146 144
109 118 185 221 261 270 256 242 216 247 268 260 242 265 274 287 319 341 349 356 345 323 317 309 208 189 185 185 186 183 181 184 185 182 178 175 172 167 164 162 162 163 161 159 156 154 153 151 149
120 120 181 225 236 256 265 286 244 231 258 250 214 232 255 264 309 339 342 336 324 309 276 259 236 201 181 186 193 187 184 184 185 184 180 177 173 169 167 166 167 168 165 162 161 159 158 155 153
94 112 217 219 215 248 274 300 292 275 256 260 238 237 253 274 307 319 322 321 302 286 266 241 224 213 192 190 199 194 188 187 186 182 178 174 172 169 169 170 171 170 168 165 165 163 160 155 155
116 190 227 219 213 248 281 271 280 289 276 267 266 260 265 269 277 280 273 273 275 269 261 242 228 219 200 200 200 199 191 189 184 179 174 174 171 170 171 173 174 174 171 169 168 165 160 155 156
168 210 236 246 243 256 274 273 256 253 264 253 261 269 266 264 263 261 257 245 246 254 256 240 226 210 202 197 187 191 187 183 182 180 174 172 170 168 168 171 175 175 171 170 169 163 161 159 161
209 240 237 255 257 260 262 266 263 241 251 256 258 263 263 264 261 256 258 253 244 243 249 239 224 215 204 196 190 184 188 181 176 184 175 169 167 167 169 170 174 173 172 168 166 164 162 165 170
230 262 258 258 268 259 259 256 262 261 262 268 268 264 257 259 261 259 251 251 242 241 245 237 220 213 205 195 195 190 196 186 178 183 181 172 171 174 172 173 175 176 172 170 167 166 167 169 174
247 264 277 274 269 265 265 271 263 267 271 271 268 264 262 256 257 262 258 253 248 242 242 228 214 206 198 197 193 191 189 188 177 178 185 176 173 173 175 176 177 178 177 175 173 172 173 176 181
286 295 296 272 264 268 286 285 253 267 285 283 276 273 270 263 259 256 255 253 249 242 235 220 213 201 196 197 194 190 187 186 179 177 185 182 177 175 176 179 182 182 179 174 170 169 170 178 188
332 321 303 292 276 270 266 279 281 285 300 291 282 279 278 273 263 259 256 255 254 239 229 221 222 203 195 195 190 186 185 187 183 177 180 184 183 179 177 182 186 180 176 177 178 176 179 188 192
356 302 284 298 273 276 250 276 294 307 304 294 289 286 285 285 279 267 256 254 249 232 220 219 212 207 198 193 188 181 179 193 186 175 176 185 187 184 182 186 185 179 178 183 184 184 181 188 195
262 274 281 287 296 290 278 281 295 307 302 299 300 299 296 292 290 281 265 259 250 233 214 212 208 208 197 189 177 177 185 197 187 177 180 185 188 187 183 188 183 179 183 187 187 188 186 187 188
249 268 285 284 287 293 283 289 299 309 321 320 315 316 316 307 294 295 279 262 239 216 204 209 209 213 195 180 177 181 193 195 188 192 187 190 187 186 187 192 186 184 191 193 186 183 184 187 166
255 276 285 293 300 291 297 296 301 311 319 329 333 328 327 328 333 331 317 305 248 211 208 208 214 209 199 190 184 183 188 189 185 190 193 196 191 190 195 194 193 191 192 193 189 177 179 184 176
260 247 263 281 310 299 309 309 315 332 346 351 352 348 349 346 335 334 340 327 307 248 216 218 217 211 198 190 180 185 175 166 175 186 200 206 199 196 196 194 197 195 194 196 196 189 186 188 191
274 239 247 280 313 317 351 313 313 336 350 358 355 355 355 352 348 347 344 349 343 313 261 219 212 202 197 188 186 186 187 189 194 194 201 207 204 203 203 196 196 198 196 195 196 194 195 187 193
241 267 268 281 279 300 309 266 301 340 350 352 352 354 355 352 354 358 357 351 351 345 328 244 208 187 194 191 191 187 195 195 188 184 190 202 203 203 205 201 196 196 198 196 196 197 196 196 199
249 317 323 14 54 308 291 239 302 338 337 341 349 353 352 355 359 0 4 7 7 5 13 19 90 144 182 182 187 191 193 188 184 195 195 195 194 199 202 201 198 197 200 199 197 196 198 201 203
58 47 12 3 4 276 312 270 277 316 336 341 345 348 350 358 2 3 5 9 12 11 19 40 53 59 82 127 168 187 192 187 195 198 189 187 195 202 202 200 199 197 199 198 194 193 201 205 204
324 129 143 249 277 299 331 276 275 312 338 350 353 354 1 3 5 9 15 19 14 14 21 38 44 49 55 62 55 70 142 174 190 188 182 190 199 200 193 198 201 198 196 197 193 194 200 208 213
134 143 171 156 298 295 296 299 306 342 1 2 3 7 9 6 9 14 19 24 21 20 24 36 40 39 39 38 35 44 64 116 129 136 154 177 172 184 183 194 200 199 198 199 194 199 204 207 217
123 150 91 110 349 310 310 304 301 321 343 353 357 2 4 6 11 14 18 21 22 27 30 37 39 38 36 33 34 43 55 84 97 107 116 120 115 142 178 206 208 197 202 203 196 201 206 211 220
35 66 96 116 151 180 305 292 257 264 317 340 342 350 2 5 10 13 16 22 26 29 32 34 34 36 34 34 36 42 41 51 67 73 82 99 74 74 113 204 213 210 203 204 199 205 212 222 228
206 204 171 173 270 188 221 277 333 159 326 358 350 354 4 10 11 13 18 22 26 29 29 30 31 33 30 29 33 36 35 42 48 48 42 53 54 31 357 4 301 254 222 213 206 211 219 227 232
Height
1495 1497 1500 1503 1507 1515 1513 1508 1504 1502 1501 1499 1499 1499 1498 1498 1500 1503 1497 1493 1492 1492 1493 1495 1497 1499 1502 1505 1507 1510 1512 1514 1516 1518 1520 1522 1524 1526 1528 1530 1532 1533 1535 1537 1538 1540 1541 1542 1544
1495 1498 1502 1503 1510 1516 1512 1505 1503 1500 1498 1497 1497 1496 1496 1495 1495 1495 1493 1492 1492 1493 1494 1495 1497 1499 1502 1505 1507 1509 1512 1514 1516 1518 1520 1522 1524 1526 1528 1530 1532 1534 1535 1537 1539 1540 1542 1543 1544
1495 1498 1501 1504 1510 1510 1504 1501 1500 1498 1497 1497 1496 1495 1495 1494 1494 1494 1493 1492 1492 1493 1494 1495 1497 1499 1501 1504 1507 1509 1512 1514 1516 1518 1520 1522 1524 1526 1528 1530 1532 1534 1536 1537 1539 1541 1542 1544 1545
1496 1500 1502 1507 1505 1504 1501 1499 1498 1497 1497 1496 1496 1495 1494 1494 1494 1493 1492 1492 1492 1493 1494 1495 1497 1499 1501 1503 1506 1508 1511 1513 1515 1518 1520 1522 1524 1526 1528 1530 1532 1534 1536 1538 1539 1541 1543 1545 1546
1496 1499 1505 1508 1505 1501 1499 1497 1497 1497 1497 1496 1496 1495 1492 1493 1492 1491 1491 1491 1491 1492 1493 1495 1496 1498 1500 1502 1505 1507 1510 1512 1515 1517 1519 1521 1524 1526 1528 1530 1532 1534 1536 1538 1540 1541 1543 1545 1547
1497 1500 1509 1508 1504 1500 1498 1496 1497 1496 1496 1496 1495 1494 1490 1490 1490 1489 1489 1490 1490 1491 1492 1494 1495 1497 1499 1501 1503 1506 1508 1511 1514 1516 1518 1521 1523 1525 1527 1529 1532 1534 1536 1538 1540 1542 1544 1545 1547
1498 1503 1506 1505 1504 1500 1496 1495 1495 1495 1494 1494 1494 1492 1489 1489 1489 1488 1488 1488 1489 1490 1491 1492 1493 1495 1497 1499 1501 1504 1507 1509 1512 1515 1517 1520 1522 1524 1526 1529 1531 1533 1535 1537 1540 1542 1544 1545 1547
1496 1502 1505 1505 1503 1499 1495 1494 1493 1493 1492 1492 1492 1490 1487 1487 1487 1486 1486 1486 1487 1488 1489 1490 1491 1493 1495 1497 1499 1502 1505 1507 1510 1513 1516 1518 1521 1523 1525 1528 1530 1533 1535 1537 1539 1541 1543 1545 1547
1497 1504 1505 1502 1501 1496 1493 1493 1492 1491 1490 1489 1488 1487 1486 1485 1484 1482 1482 1483 1484 1485 1486 1488 1489 1490 1492 1494 1497 1499 1502 1505 1508 1511 1514 1516 1519 1521 1524 1526 1529 1532 1534 1536 1539 1541 1543 1545 1546
1497 1503 1499 1496 1495 1494 1492 1492 1491 1489 1487 1485 1483 1482 1482 1481 1480 1479 1478 1479 1480 1481 1483 1484 1486 1487 1489 1492 1494 1496 1499 1502 1505 1508 1511 1514 1517 1519 1522 1525 1528 1531 1533 1535 1538 1540 1542 1544 1545
1495 1497 1495 1493 1492 1492 1491 1489 1488 1487 1483 1480 1479 1477 1477 1476 1475 1475 1474 1475 1476 1477 1478 1480 1482 1484 1486 1488 1491 1493 1495 1498 1501 1505 1508 1511 1514 1517 1519 1523 1526 1529 1531 1534 1536 1538 1540 1542 1544
1495 1493 1492 1490 1490 1489 1488 1486 1484 1481 1476 1475 1475 1473 1472 1470 1469 1469 1469 1469 1470 1472 1473 1475 1477 1479 1482 1484 1487 1489 1491 1494 1497 1501 1504 1507 1511 1514 1516 1520 1523 1526 1529 1531 1534 1536 1538 1541 1543
1493 1491 1489 1488 1487 1485 1484 1481 1479 1473 1470 1470 1469 1468 1466 1464 1463 1464 1464 1464 1465 1466 1468 1469 1472 1474 1477 1480 1482 1485 1487 1490 1493 1496 1500 1504 1507 1510 1513 1516 1520 1523 1526 1528 1531 1534 1536 1538 1541
1490 1489 1487 1485 1483 1482 1480 1475 1475 1466 1466 1465 1463 1462 1461 1459 1458 1458 1458 1458 1459 1460 1462 1464 1466 1469 1472 1474 1477 1480 1483 1486 1490 1493 1496 1499 1503 1506 1509 1513 1516 1519 1522 1525 1528 1531 1534 1536 1538
1489 1488 1485 1482 1480 1478 1478 1472 1468 1463 1462 1460 1458 1456 1455 1453 1452 1451 1452 1452 1453 1454 1456 1458 1460 1463 1467 1470 1473 1476 1480 1482 1485 1489 1492 1496 1499 1503 1506 1509 1512 1516 1519 1522 1525 1528 1531 1533 1535
1488 1489 1487 1481 1479 1477 1480 1472 1463 1461 1459 1456 1453 1451 1449 1447 1446 1445 1445 1446 1447 1448 1450 1452 1455 1458 1462 1465 1469 1472 1475 1478 1481 1485 1488 1492 1495 1499 1502 1505 1508 1512 1515 1518 1521 1524 1526 1529 1532
1491 1492 1489 1483 1478 1476 1477 1470 1461 1459 1457 1453 1450 1447 1444 1441 1440 1439 1439 1440 1441 1443 1444 1446 1450 1453 1457 1460 1464 1467 1470 1473 1477 1480 1484 1487 1490 1494 1497 1500 1504 1507 1510 1513 1516 1519 1522 1525 1528
1491 1491 1487 1484 1478 1476 1474 1468 1460 1457 1454 1451 1447 1444 1440 1437 1435 1434 1434 1434 1435 1437 1439 1442 1445 1448 1452 1456 1459 1462 1466 1469 1472 1475 1479 1482 1486 1489 1493 1496 1499 1502 1505 1508 1511 1515 1518 1521 1524
1488 1488 1486 1481 1476 1475 1471 1465 1458 1455 1452 1448 1445 1441 1437 1434 1432 1430 1429 1430 1430 1431 1433 1436 1440 1444 1447 1450 1453 1457 1460 1463 1467 1470 1474 1478 1481 1484 1488 1491 1493 1497 1500 1503 1506 1510 1513 1516 1519
1486 1486 1484 1479 1474 1473 1469 1463 1456 1453 1451 1448 1444 1440 1436 1431 1428 1427 1426 1426 1426 1428 1430 1433 1435 1438 1442 1445 1449 1452 1455 1458 1461 1465 1469 1473 1476 1479 1483 1485 1488 1491 1495 1499 1502 1504 1507 1511 1514
1484 1485 1482 1480 1475 1471 1470 1463 1457 1453 1450 1447 1444 1440 1435 1432 1428 1425 1423 1423 1423 1424 1426 1429 1431 1434 1437 1440 1444 1448 1451 1454 1457 1460 1463 1467 1471 1474 1477 1480 1483 1486 1489 1492 1496 1499 1501 1504 1508
1482 1478 1478 1477 1478 1477 1475 1471 1460 1455 1451 1448 1445 1440 1436 1432 1428 1425 1422 1421 1421 1421 1422 1424 1427 1430 1432 1436 1439 1442 1445 1448 1451 1455 1458 1462 1465 1468 1472 1475 1478 1481 1484 1487 1490 1493 1496 1499 1501
1479 1476 1477 1476 1478 1479 1475 1475 1465 1457 1453 1450 1447 1443 1438 1433 1429 1425 1422 1421 1420 1419 1420 1422 1424 1425 1428 1432 1435 1438 1441 1444 1447 1451 1454 1458 1460 1463 1466 1469 1472 1475 1478 1481 1484 1487 1490 1493 1495
1477 1477 1476 1478 1480 1480 1475 1475 1467 1461 1458 1453 1449 1445 1440 1435 1430 1426 1423 1421 1420 1419 1420 1420 1420 1421 1425 1428 1431 1434 1436 1439 1443 1446 1449 1452 1455 1457 1460 1463 1467 1469 1472 1475 1478 1480 1484 1486 1489
1478 1482 1487 1485 1487 1480 1474 1473 1468 1461 1459 1456 1452 1447 1442 1437 1432 1428 1425 1422 1420 1420 1419 1419 1419 1420 1423 1425 1427 1430 1432 1436 1439 1441 1444 1446 1449 1452 1455 1458 1461 1464 1466 1469 1472 1474 1477 1479 1482
1479 1482 1488 1487 1485 1481 1475 1473 1467 1461 1459 1456 1453 1449 1445 1440 1435 1431 1427 1424 1422 1421 1419 1419 1418 1419 1421 1423 1425 1426 1429 1432 1435 1437 1440 1443 1445 1448 1450 1453 1456 1459 1461 1464 1466 1468 1471 1473 1475
1479 1482 1483 1487 1488 1487 1477 1473 1464 1460 1458 1456 1453 1450 1447 1443 1439 1434 1430 1427 1425 1423 1421 1420 1419 1419 1420 1421 1422 1423 1426 1429 1431 1434 1437 1439 1441 1443 1446 1449 1451 1454 1456 1459 1460 1462 1465 1468 1470
1479 1481 1485 1486 1484 1481 1476 1474 1468 1462 1460 1458 1455 1453 1449 1445 1441 1437 1434 1431 1428 1426 1424 1422 1421 1421 1421 1422 1422 1423 1424 1426 1429 1431 1433 1435 1438 1440 1442 1445 1447 1449 1452 1453 1455 1457 1459 1462 1463
1480 1481 1483 1486 1486 1486 1481 1473 1464 1463 1461 1460 1458 1455 1452 1448 1444 1440 1437 1433 1431 1428 1426 1423 1423 1422 1423 1422 1422 1423 1423 1425 1426 1428 1430 1433 1435 1437 1439 1441 1443 1445 1447 1448 1449 1451 1453 1455 1457
1479 1480 1482 1484 1486 1489 1486 1477 1463 1462 1461 1460 1459 1456 1454 1451 1448 1444 1440 1437 1433 1430 1428 1426 1426 1425 1424 1423 1422 1423 1424 1424 1425 1427 1429 1431 1432 1434 1436 1438 1439 1440 1442 1443 1445 1446 1448 1450 1450